星链-4353 (STARLINK-4353 )

导读

STARLINK-4353是美国太空探索技术公司(SpaceX)星链(Starlink)星座的卫星,于2022年7月22日发射升空,属于星链互联网星座组网卫星,用于构建全球低轨卫星互联网,为全球多地提供高速互联网接入服务,是星链大规模部署中的一员,承载SpaceX星座建设与全球互联网覆盖的任务。

基本信息
目录编号:
53214
目录名称:
STARLINK-4353
国际标识:
2022-084AB
轨道中心:
EARTH
卫星名称:
星链-4353
卫星全名:
星链-4353 (STARLINK-4353 )
卫星状态:
在轨 (已飞行1426 天)
发射日期:
2022-07-22 UTC
国别 :
美国 (US)
星等 :
--
轨道信息
数据来源 国际轨道数据 AOE轨道数据
星历时间 2026-06-17T10:15:17+0800
7小时前
查看轨道信息
2026-06-15T23:00:00+0800
1天前
查看轨道信息
半长轴 6927.634km 6927.626km
偏心率 0.0001454 0.0001352
轨道倾角 97.351° 97.377°
近地点辐角 117.272° 129.739°
升交点赤经 227.080° 225.700°
平近点角 242.865° 193.252°
近地点 548.489km 548.552km
远地点 550.505km 550.426km
周期 95.639分钟 95.639分钟
每日圈数 15.056547 15.056575
详细信息
固有亮度:
5
最大亮度:
2.5
卫星平台:
Starlink v1.5
覆盖范围:
全球
运营商:
太空探索技术公司
运营商所在国:
美国
制造商(研发单位):
太空探索技术公司
制造商所在国:
美国
使用方式:
暂无
卫星简介
星链(Starlink)计划是由太空探索技术公司(SpaceX)提出的一个巨型低轨卫星互联网星座项目,计划在2019年至2024年间在太空搭建由约1.2万颗卫星组成的“星链”网络,其中1584颗将部署在地球上空550千米处的近地轨道,并从2020年开始工作。该卫星仍在工作。
2D轨道图
3D轨道图
轨道高度分析图
轨道倾角分析图
轨道综合分析图
查看轨道综合分析图